Orbital Elements at Epoch 2459000.5 (2020-May-31.0) TDB
Reference: JPL 13 (heliocentric ecliptic J2000)
Element | Value | Uncertainty (1-sigma) | Units |
e | .2477215755749678 | 4.1093e-08 | |
a | 3.072238524215091 | 3.0871e-08 | au |
q | 2.311178756454415 | 1.3374e-07 | au |
i | 14.99621845789651 | 9.66e-06 | deg |
node | 342.3508266967868 | 2.3129e-05 | deg |
peri | 62.81908214858473 | 3.6023e-05 | deg |
M | 275.4471538447079 | 2.636e-05 | deg |
tp | 2459462.462319425189 (2021-Sep-04.96231943) | 0.00014829 | TDB |
period | 1966.893399278659 5.39 | 2.9646e-05 8.117e-08 | d yr |
n | .1830297463665428 | 2.7587e-09 | deg/d |
Q | 3.833298291975768 | 3.8518e-08 | au |
|
| | Orbit Determination Parameters
Additional Information
|